Terminal Aerodrome Forecast
Issued by NWS

Home | Current Version | Previous Version | Text Only | Print | Product List | Glossary Off
Versions: 1 2 3 4 5 6 7 8 9 10 11 12 13 14 15 16 17 18 19 20 21 22 23 24 25 26

976
FTUS43 KICT 261141
TAFSLN
TAF
KSLN 261141Z 2612/2712 VRB03KT 4SM BR OVC005
      TEMPO 2612/2614 2SM BR OVC003
     FM261500 07006KT P6SM SCT008 BKN012
     FM261800 08010KT P6SM SCT015 BKN030
     FM262100 08011KT P6SM VCTS BKN040CB
     FM270000 04014KT P6SM VCTS SCT015 BKN025CB
     FM270400 03014KT P6SM VCSH SCT009 BKN015=

USA.gov is the U.S. government's official web portal to all federal, state and local government web resources and services.